Vorticity
11 11 12 12 11 9 11 10 12 13 12 8 11 26 11 15 11 7 5 8 5 4 6 8 12 4 4 6 13 10 5 11 10 8 17 -2 3 7 4 6 6 5 4 4
10 13 11 8 9 9 10 12 13 16 15 9 9 12 19 15 16 16 4 10 6 5 6 2 5 10 7 4 2 10 11 10 5 0 11 4 -1 3 5 6 5 5 4 5
11 7 8 6 6 9 11 13 12 13 13 18 14 9 10 7 12 13 17 6 8 8 2 7 5 3 9 10 5 3 11 13 8 3 5 6 3 12 -8 3 10 5 4 5
6 7 5 8 17 18 10 21 27 30 27 13 25 16 17 21 11 7 11 17 7 14 9 3 6 5 6 5 8 5 4 8 9 9 7 7 4 -9 7 -8 9 11 19 -3
3 5 9 20 18 28 35 43 38 34 33 38 42 25 36 31 20 21 9 9 12 11 11 17 8 5 1 8 8 10 7 10 3 14 6 3 6 4 1 6 1 6 1 19
11 14 23 23 24 24 28 23 19 27 36 34 29 27 33 35 22 33 26 16 10 10 9 11 16 9 7 1 6 4 7 13 5 7 11 7 0 4 5 2 -1 4 2 0
23 12 18 10 29 14 1 2 28 14 10 11 17 42 5 23 33 31 28 29 17 16 12 6 8 18 9 7 5 7 7 25 10 6 10 6 7 3 7 7 7 8 5 4
22 21 15 16 22 14 16 20 -1 3 4 23 24 10 5 23 7 18 26 21 28 20 25 11 12 8 14 10 5 6 5 6 5 7 13 8 8 7 3 6 5 4 6 7
13 17 18 20 27 11 19 13 9 1 8 35 30 -0 3 11 19 12 14 18 30 20 21 23 14 13 11 12 11 4 8 1 -1 14 -0 7 12 6 2 2 6 4 6 7
7 15 18 32 15 6 5 14 4 11 -4 -3 14 -11 14 17 10 5 8 6 14 29 25 22 17 23 19 12 15 9 11 9 12 -11 5 14 9 14 5 5 -1 6 3 -13
3 23 15 11 11 9 12 19 11 5 6 0 19 -16 15 18 3 21 19 22 10 6 17 29 22 17 16 21 15 19 8 8 9 8 6 7 8 10 10 -0 5 6 7 -1
4 8 25 8 3 16 12 8 3 4 7 9 7 -6 10 12 14 11 14 20 25 5 11 12 25 21 22 14 19 14 16 12 13 14 6 3 3 6 11 0 20 2 1 7
8 1 21 19 8 18 -3 3 3 8 2 6 7 16 13 14 7 5 10 13 21 26 18 7 18 19 27 19 17 23 17 15 11 13 8 4 10 10 13 15 9 -0 15 12
23 7 20 10 10 18 11 7 7 5 5 9 6 11 9 8 12 21 22 38 33 32 45 38 10 15 27 24 16 23 20 12 14 10 6 10 16 17 3 6 33 14 -7 10
24 13 16 6 18 13 10 11 9 3 11 5 9 14 4 12 15 14 37 25 14 35 39 53 19 10 26 29 24 17 23 21 22 17 17 20 23 12 18 -8 14 0 22 -5
18 21 19 9 10 5 11 12 3 10 10 8 11 16 10 13 13 35 35 24 16 52 50 39 16 22 26 16 37 8 19 37 7 26 34 -7 -8 25 15 -5 -10 18 32 15
16 28 20 7 10 9 6 12 2 13 8 8 13 14 12 15 29 37 12 23 7 37 19 19 17 15 25 15 21 0 24 -11 25 -15 8 -0 -3 15 -8 11 16 22 2 38
23 24 19 13 2 -0 10 10 8 8 4 16 15 4 20 13 21 31 20 7 18 52 17 5 4 5 14 11 16 -23 20 20 15 16 28 9 1 -11 17 16 10 32 26 1
20 23 20 19 3 11 5 11 9 13 1 9 23 12 15 14 14 21 53 31 36 26 -4 2 12 1 25 14 48 -3 17 -4 46 21 -7 21 17 20 23 42 28 -3 -3 3
18 11 14 21 2 10 7 13 12 7 3 14 26 14 3 4 5 5 18 48 29 -5 33 34 35 15 11 36 -12 55 24 -6 62 29 31 21 36 16 8 6 0 8 7 12
11 6 22 14 5 9 0 11 8 9 8 14 17 18 9 -1 -2 8 -1 13 27 46 33 25 9 -16 33 29 40 31 23 54 20 12 12 11 2 9 4 5 5 11 5 2
15 15 16 6 9 2 1 8 11 9 10 9 13 19 10 4 6 -3 2 3 1 3 5 6 14 30 18 1 5 5 2 -0 8 2 6 4 10 6 7 7 3 5 8 12
18 18 19 14 6 12 -2 7 13 8 9 13 22 22 6 6 17 18 21 15 14 18 10 9 13 10 1 18 10 6 8 7 5 1 2 8 9 4 5 7 8 15 19 12
19 16 11 6 7 5 2 12 14 9 11 19 15 14 7 -2 0 1 3 6 5 3 5 2 3 4 4 5 3 4 8 3 10 10 3 6 9 7 10 18 15 11 10 7
19 21 13 4 -2 7 9 14 14 -4 6 17 1 -3 2 8 7 5 6 7 7 8 7 7 8 7 5 4 5 11 9 2 4 9 7 8 8 14 14 10 8 6 5 1
17 22 20 20 13 12 11 13 14 4 6 6 13 13 11 8 7 6 6 6 7 7 7 7 6 8 13 11 4 4 4 9 7 8 8 12 11 7 4 4 3 2 0 2
Height
5718 5711 5704 5699 5693 5687 5681 5676 5672 5670 5666 5667 5665 5670 5668 5670 5673 5676 5680 5684 5688 5692 5696 5700 5707 5709 5710 5717 5720 5724 5727 5733 5737 5740 5745 5750 5753 5755 5757 5759 5760 5762 5762 5764
5707 5700 5693 5686 5679 5673 5665 5660 5656 5653 5648 5648 5649 5654 5653 5654 5653 5655 5660 5665 5671 5675 5680 5685 5690 5697 5701 5706 5711 5714 5718 5722 5728 5732 5735 5738 5743 5746 5748 5750 5752 5754 5755 5755
5698 5690 5683 5675 5665 5658 5649 5640 5636 5633 5631 5630 5628 5640 5640 5632 5633 5639 5639 5645 5651 5659 5665 5669 5674 5681 5688 5694 5698 5704 5707 5712 5717 5722 5726 5729 5733 5737 5740 5742 5744 5745 5746 5746
5687 5678 5669 5660 5649 5640 5632 5622 5615 5611 5608 5610 5610 5617 5615 5612 5615 5620 5623 5630 5636 5642 5647 5653 5658 5665 5674 5681 5685 5692 5697 5701 5705 5711 5717 5721 5723 5727 5730 5731 5733 5735 5735 5737
5676 5666 5656 5645 5635 5623 5615 5607 5601 5595 5593 5591 5593 5595 5596 5598 5601 5603 5608 5614 5618 5623 5630 5637 5644 5651 5658 5668 5672 5678 5685 5690 5694 5700 5706 5711 5714 5717 5720 5723 5725 5726 5728 5729
5663 5653 5644 5635 5625 5615 5606 5601 5596 5590 5585 5585 5583 5580 5584 5585 5587 5587 5591 5598 5602 5607 5613 5620 5628 5636 5644 5653 5660 5665 5672 5679 5682 5688 5694 5699 5706 5708 5710 5713 5716 5717 5718 5719
5655 5644 5634 5624 5621 5612 5604 5598 5594 5589 5585 5584 5580 5578 5578 5576 5575 5577 5578 5581 5586 5591 5597 5603 5611 5620 5629 5638 5647 5653 5662 5666 5672 5678 5682 5687 5697 5701 5700 5703 5706 5708 5709 5711
5647 5640 5628 5620 5613 5609 5603 5598 5593 5586 5583 5580 5578 5576 5575 5572 5569 5568 5567 5568 5571 5575 5581 5588 5596 5605 5614 5624 5635 5641 5647 5654 5660 5667 5671 5676 5686 5691 5691 5694 5696 5698 5700 5701
5640 5638 5623 5613 5608 5605 5600 5597 5593 5586 5583 5578 5576 5574 5572 5569 5566 5563 5561 5560 5559 5562 5566 5572 5581 5589 5596 5606 5616 5626 5633 5639 5651 5657 5659 5665 5672 5679 5683 5685 5688 5689 5691 5692
5637 5631 5620 5614 5608 5604 5599 5595 5592 5588 5580 5574 5572 5570 5566 5564 5562 5559 5556 5553 5552 5552 5553 5557 5564 5573 5582 5592 5601 5610 5620 5628 5638 5645 5650 5654 5660 5668 5673 5677 5681 5683 5682 5683
5634 5628 5621 5613 5608 5604 5600 5595 5591 5586 5582 5576 5568 5567 5561 5557 5553 5550 5548 5545 5543 5542 5542 5545 5550 5558 5567 5577 5587 5597 5606 5615 5625 5632 5639 5644 5650 5657 5664 5669 5670 5672 5675 5674
5633 5627 5619 5613 5608 5603 5598 5595 5590 5584 5581 5577 5570 5565 5556 5550 5545 5540 5536 5533 5533 5533 5531 5531 5537 5544 5552 5562 5572 5584 5593 5604 5613 5621 5628 5634 5640 5647 5655 5660 5664 5663 5666 5666
5628 5622 5618 5613 5608 5602 5599 5595 5590 5585 5579 5575 5566 5561 5555 5548 5541 5533 5524 5518 5515 5515 5516 5519 5523 5532 5541 5549 5561 5572 5582 5591 5601 5610 5618 5624 5632 5639 5647 5652 5652 5656 5656 5655
5624 5620 5615 5611 5606 5603 5600 5595 5590 5584 5578 5572 5566 5557 5553 5545 5535 5526 5515 5502 5497 5497 5498 5503 5512 5521 5530 5540 5551 5562 5572 5581 5591 5600 5608 5616 5624 5631 5639 5643 5641 5646 5648 5645
5620 5617 5613 5608 5605 5602 5599 5595 5589 5584 5579 5571 5566 5557 5547 5536 5524 5510 5500 5497 5493 5488 5485 5490 5503 5516 5525 5534 5545 5557 5567 5577 5585 5594 5603 5611 5618 5625 5631 5634 5636 5637 5638 5637
5615 5611 5609 5606 5604 5601 5597 5593 5588 5583 5578 5573 5564 5557 5548 5537 5525 5511 5501 5496 5492 5485 5483 5491 5504 5515 5525 5533 5544 5557 5568 5574 5583 5591 5601 5606 5610 5618 5623 5626 5631 5631 5626 5626
5610 5608 5606 5605 5603 5600 5598 5593 5589 5583 5577 5572 5564 5558 5549 5538 5527 5512 5505 5499 5496 5494 5497 5503 5512 5521 5528 5536 5546 5558 5564 5572 5582 5587 5596 5601 5608 5613 5619 5620 5622 5621 5620 5618
5606 5605 5603 5603 5602 5601 5598 5593 5590 5584 5579 5574 5570 5563 5552 5540 5532 5519 5510 5505 5502 5503 5508 5515 5521 5527 5533 5541 5544 5553 5561 5573 5580 5585 5591 5596 5601 5605 5609 5610 5612 5611 5613 5614
5603 5604 5602 5602 5602 5601 5598 5595 5590 5585 5581 5577 5572 5566 5559 5550 5541 5531 5518 5512 5512 5513 5518 5522 5526 5531 5536 5543 5550 5556 5564 5570 5575 5582 5588 5591 5596 5600 5603 5604 5606 5608 5608 5608
5606 5605 5604 5603 5602 5601 5599 5595 5590 5587 5583 5578 5574 5570 5565 5559 5553 5542 5534 5527 5523 5524 5526 5527 5530 5536 5541 5546 5552 5558 5564 5570 5574 5578 5583 5588 5592 5595 5597 5602 5603 5603 5606 5605
5610 5607 5605 5604 5603 5602 5600 5596 5592 5590 5587 5581 5578 5574 5570 5564 5559 5555 5550 5546 5540 5536 5536 5537 5541 5542 5548 5553 5557 5561 5566 5571 5576 5580 5582 5587 5591 5594 5597 5599 5601 5600 5600 5598
5611 5608 5605 5605 5603 5603 5600 5597 5595 5592 5588 5584 5581 5579 5575 5571 5567 5564 5562 5559 5556 5553 5551 5552 5553 5553 5556 5560 5564 5568 5571 5574 5577 5579 5584 5589 5592 5593 5597 5596 5596 5595 5595 5596
5613 5609 5606 5605 5604 5603 5601 5598 5596 5594 5590 5587 5584 5582 5580 5577 5575 5573 5570 5568 5566 5564 5563 5562 5563 5564 5566 5567 5568 5571 5577 5580 5583 5585 5588 5590 5591 5593 5593 5592 5592 5592 5592 5590
5612 5609 5606 5604 5604 5603 5601 5600 5598 5597 5593 5590 5588 5586 5583 5583 5580 5577 5576 5575 5574 5572 5571 5571 5571 5574 5575 5576 5577 5578 5580 5582 5584 5587 5589 5590 5588 5586 5589 5589 5590 5590 5588 5587
5610 5608 5606 5604 5604 5603 5601 5600 5599 5598 5596 5594 5592 5590 5587 5587 5586 5584 5583 5583 5583 5582 5581 5580 5580 5580 5580 5581 5581 5582 5584 5585 5586 5587 5586 5585 5586 5587 5587 5586 5588 5588 5583 5579
5609 5606 5604 5603 5603 5602 5601 5600 5599 5599 5597 5597 5595 5594 5592 5590 5589 5588 5587 5587 5587 5587 5587 5586 5586 5585 5585 5585 5585 5585 5585 5585 5584 5585 5586 5586 5585 5584 5584 5583 5581 5578 5576 5574